カタログに戻る

STARLINK-11133

運用中通信VLEO
NORAD 59954·PAYLOAD·🇺🇸 United States

打ち上げ Jun 5, 2024 から Cape Canaveral Space Force Station

Loading…

次のパス (今後24時間)

TLE

最新Source: CelesTrak SupGP

元期: Sep 15, 2026, 02:58 UTC

1 59954C 24107K   26258.12409722 -.00000334  00000+0 -27568-5 0  2588
2 59954  53.1576  37.2774 0001113  93.8764 161.6044 15.69678540    18

AllMySatでSTARLINK-11133をリアルタイム追跡

Download on the App Store